Cody, WY

6:45 PM MDT on May 22, 2017 (GMT -0600)
Yellowstone Regional

Weather History for KCOD - September, 2013

Change the Weather History Date:

Tuesday, September 17, 2013

  Actual Average Record
Temperature  
Mean Temperature 64 °F -  
Max Temperature 75 °F 71 °F 94 °F (1920)
Min Temperature 53 °F 43 °F 21 °F (1965)
Degree Days  
Heating Degree Days 1    
Growing Degree Days 14 (Base 50)    
Moisture  
Dew Point 47 °F    
Average Humidity 60    
Maximum Humidity 88    
Minimum Humidity 34    
Precipitation  
Precipitation 0.00 in - - ()
Sea Level Pressure  
Sea Level Pressure 29.87 in    
Wind  
Wind Speed 10 mph (SSW)    
Max Wind Speed 18 mph    
Max Gust Speed 29 mph    
Visibility 10 miles    
Events Thunderstorm    
Averages and records for this station are not official NWS values.
T = Trace of Precipitation, MM = Missing Value Source: NWS Daily Summary

Daily Weather History Graph

Daily Weather History Graph

Search for Another Location

Airport or City:

Trip Planner

Search our weather history database for the weather conditions in past years. The results will help you decide how hot, cold, wet, or windy it might be!

Date:

Astronomy

Sep. 17, 2013 Rise Set
Actual Time 6:57 AM MDT 7:22 PM MDT
Civil Twilight 6:28 AM MDT 7:51 PM MDT
Nautical Twilight 5:54 AM MDT 8:25 PM MDT
Astronomical Twilight 5:18 AM MDT 9:01 PM MDT
Moon 6:13 PM MDT (9/17) 4:52 AM MDT (9/17)
Length of Visible Light 13h 22m
Length of Day
12h 24m
Waxing Gibbous, 96% of the Moon is Illuminated
Sep 17
Waxing Gibbous
Sep 19
Full
Sep 26
Last Quarter
Oct 4
New
Oct 11
First Quarter

Hourly Weather History & Observations

Time (MDT) Temp. Dew Point Humidity Pressure Visibility Wind Dir Wind Speed Gust Speed Precip Events Conditions
12:15 AM 64.4 °F 46.4 °F 52% 29.96 in 10.0 mi SSW 16.1 mph - N/A   Clear
12:35 AM 64.4 °F 46.4 °F 52% 29.96 in 10.0 mi SSW 13.8 mph - N/A   Clear
12:55 AM 62.6 °F 46.4 °F 55% 29.95 in 10.0 mi SW 10.4 mph - N/A   Clear
1:15 AM 62.6 °F 46.4 °F 55% 29.95 in 10.0 mi SW 6.9 mph - N/A   Clear
1:35 AM 62.6 °F 46.4 °F 55% 29.95 in 10.0 mi SSW 13.8 mph - N/A   Clear
2:15 AM 60.8 °F 46.4 °F 59% 29.95 in 10.0 mi SSW 4.6 mph - N/A   Clear
2:35 AM 60.8 °F 46.4 °F 59% 29.95 in 10.0 mi South 9.2 mph - N/A   Clear
2:55 AM 60.8 °F 46.4 °F 59% 29.93 in 10.0 mi SSE 11.5 mph - N/A   Clear
3:15 AM 64.4 °F 44.6 °F 49% 29.93 in 10.0 mi SSE 9.2 mph - N/A   Clear
3:35 AM 59.0 °F 46.4 °F 63% 29.93 in 10.0 mi SE 10.4 mph - N/A   Clear
3:55 AM 59.0 °F 46.4 °F 63% 29.93 in 10.0 mi SSE 8.1 mph - N/A   Clear
4:15 AM 57.2 °F 46.4 °F 67% 29.93 in 10.0 mi SSW 8.1 mph - N/A   Clear
4:35 AM 62.6 °F 44.6 °F 52% 29.94 in 10.0 mi SSW 9.2 mph - N/A   Clear
4:55 AM 64.4 °F 44.6 °F 49% 29.97 in 10.0 mi WSW 17.3 mph 26.5 mph N/A   Clear
5:35 AM 66.2 °F 42.8 °F 43% 29.94 in 10.0 mi West 5.8 mph - N/A   Clear
5:55 AM 64.4 °F 44.6 °F 49% 29.95 in 10.0 mi SE 5.8 mph - N/A   Clear
6:15 AM 64.4 °F 44.6 °F 49% 29.94 in 10.0 mi WNW 9.2 mph - N/A   Clear
6:55 AM 64.4 °F 42.8 °F 45% 29.93 in 10.0 mi SW 5.8 mph - N/A   Clear
7:15 AM 62.6 °F 44.6 °F 52% 29.94 in 10.0 mi West 18.4 mph 28.8 mph N/A   Clear
7:55 AM 64.4 °F 42.8 °F 45% 29.95 in 10.0 mi WSW 15.0 mph 21.9 mph N/A   Scattered Clouds
8:15 AM 64.4 °F 42.8 °F 45% 29.94 in 10.0 mi WSW 12.7 mph 26.5 mph N/A   Partly Cloudy
8:35 AM 66.2 °F 42.8 °F 43% 29.93 in 10.0 mi West 16.1 mph 27.6 mph N/A   Partly Cloudy
9:15 AM 68.0 °F 42.8 °F 40% 29.92 in 10.0 mi West 16.1 mph 27.6 mph N/A   Clear
9:55 AM 69.8 °F 44.6 °F 40% 29.92 in 10.0 mi WSW 12.7 mph 20.7 mph N/A   Clear
10:15 AM 68.0 °F 42.8 °F 40% 29.91 in 10.0 mi West 12.7 mph 18.4 mph N/A   Clear
10:35 AM 66.2 °F 42.8 °F 43% 29.92 in 10.0 mi WNW 11.5 mph 16.1 mph N/A   Partly Cloudy
10:55 AM 68.0 °F 44.6 °F 43% 29.91 in 10.0 mi West 11.5 mph 17.3 mph N/A   Mostly Cloudy
11:15 AM 69.8 °F 46.4 °F 43% 29.91 in 10.0 mi NW 5.8 mph - N/A   Mostly Cloudy
11:35 AM 69.8 °F 46.4 °F 43% 29.90 in 10.0 mi Calm Calm - N/A   Mostly Cloudy
11:55 AM 71.6 °F 44.6 °F 38% 29.88 in 10.0 mi Calm Calm - N/A   Partly Cloudy
12:15 PM 73.4 °F 46.4 °F 38% 29.86 in 10.0 mi ENE 5.8 mph - N/A   Clear
12:35 PM 75.2 °F 44.6 °F 34% 29.86 in 8.0 mi ESE 5.8 mph - N/A   Clear
12:55 PM 73.4 °F 44.6 °F 36% 29.85 in 10.0 mi East 5.8 mph - N/A   Partly Cloudy
1:15 PM 73.4 °F 44.6 °F 36% 29.84 in 10.0 mi ESE 9.2 mph - N/A   Mostly Cloudy
1:55 PM 71.6 °F 44.6 °F 38% 29.84 in 10.0 mi SE 3.5 mph - N/A Thunderstorm Mostly Cloudy
2:15 PM 69.8 °F 48.2 °F 46% 29.86 in 10.0 mi WNW 5.8 mph - N/A Thunderstorm Overcast
2:35 PM 64.4 °F 50.0 °F 59% 29.90 in 9.0 mi South 16.1 mph 25.3 mph N/A Thunderstorm Thunderstorm
2:55 PM 59.0 °F 50.0 °F 72% 29.86 in 9.0 mi SE 11.5 mph 25.3 mph N/A Thunderstorm Thunderstorm
3:15 PM 57.2 °F 51.8 °F 82% 29.85 in 10.0 mi WNW 8.1 mph - N/A Thunderstorm Mostly Cloudy
3:35 PM 60.8 °F 53.6 °F 77% 29.84 in 10.0 mi NNE 4.6 mph - N/A   Partly Cloudy
3:55 PM 60.8 °F 51.8 °F 72% 29.83 in 10.0 mi NNW 8.1 mph - N/A   Clear
4:15 PM 62.6 °F 53.6 °F 72% 29.82 in 10.0 mi NNW 6.9 mph - N/A   Mostly Cloudy
4:35 PM 62.6 °F 53.6 °F 72% 29.81 in 10.0 mi SW 4.6 mph - N/A   Partly Cloudy
4:55 PM 62.6 °F 53.6 °F 72% 29.82 in 9.0 mi South 11.5 mph - N/A Thunderstorm Mostly Cloudy
5:15 PM 60.8 °F 53.6 °F 77% 29.82 in 10.0 mi SSE 6.9 mph - N/A Thunderstorm Thunderstorm
5:35 PM 60.8 °F 51.8 °F 72% 29.79 in 10.0 mi SE 11.5 mph - N/A Thunderstorm Mostly Cloudy
5:55 PM 60.8 °F 50.0 °F 68% 29.78 in 10.0 mi SSE 11.5 mph - N/A   Mostly Cloudy
6:15 PM 60.8 °F 50.0 °F 68% 29.75 in 10.0 mi South 11.5 mph - N/A   Mostly Cloudy
6:35 PM 60.8 °F 50.0 °F 68% 29.77 in 10.0 mi SE 9.2 mph - N/A   Mostly Cloudy
6:55 PM 60.8 °F 51.8 °F 72% 29.76 in 10.0 mi ESE 6.9 mph - N/A   Mostly Cloudy
7:15 PM 59.0 °F 50.0 °F 72% 29.76 in 10.0 mi SE 4.6 mph - N/A   Scattered Clouds
7:35 PM 57.2 °F 51.8 °F 82% 29.77 in 10.0 mi SSE 6.9 mph - N/A   Partly Cloudy
7:55 PM 57.2 °F 51.8 °F 82% 29.74 in 10.0 mi Calm Calm - N/A   Clear
8:15 PM 55.4 °F 51.8 °F 88% 29.74 in 10.0 mi NW 4.6 mph - N/A   Clear
8:35 PM 57.2 °F 51.8 °F 82% 29.79 in 10.0 mi SSE 9.2 mph - N/A   Mostly Cloudy
8:55 PM 57.2 °F 51.8 °F 82% 29.82 in 10.0 mi South 4.6 mph - N/A   Overcast
9:15 PM 59.0 °F 51.8 °F 77% 29.81 in 10.0 mi NW 10.4 mph - N/A   Overcast
9:35 PM 55.4 °F 46.4 °F 72% 29.84 in 10.0 mi NNW 12.7 mph 19.6 mph N/A   Mostly Cloudy
9:55 PM 57.2 °F 46.4 °F 67% 29.87 in 10.0 mi SW 9.2 mph - N/A   Overcast
10:15 PM 53.6 °F 48.2 °F 82% 29.87 in 10.0 mi WSW 5.8 mph - N/A   Overcast
10:35 PM 53.6 °F 46.4 °F 77% 29.84 in 10.0 mi WSW 10.4 mph - N/A   Overcast
10:55 PM 53.6 °F 46.4 °F 77% 29.81 in 10.0 mi SSW 10.4 mph - N/A   Overcast
11:15 PM 53.6 °F 46.4 °F 77% 29.81 in 10.0 mi WSW 4.6 mph - N/A   Overcast
11:35 PM 53.6 °F 44.6 °F 72% 29.76 in 10.0 mi South 12.7 mph - N/A   Scattered Clouds